Regional Weather Roundup
Issued by NWS

Home | Current Version | Previous Version | Graphics & Text | Print | Product List | Glossary On
Versions: 1 2 3 4 5 6 7 8 9 10 11 12 13 14 15 16 17 18 19 20 21 22 23 24 25 26 27 28 29 30 31 32 33 34 35 36 37 38 39 40 41 42 43 44 45 46 47 48 49 50
758
ASUS45 KBOU 240907
RWRCO

WEATHER ROUNDUP FOR COLORADO
NATIONAL WEATHER SERVICE DENVER/BOULDER CO
300 AM MDT FRI MAR 24 2017

NOTE: "FAIR" INDICATES FEW OR NO CLOUDS BELOW 12000 FEET WITH NO
SIGNIFICANT WEATHER AND/OR OBSTRUCTIONS TO VISIBILITY.

COZ001>005-013-030-031-241000-
...NORTHWEST COLORADO...

CITY           SKY/WX    TMP DP  RH WIND       PRES   REMARKS
CRAIG          FAIR      37  29  72 MISG      29.97R
HAYDEN         FAIR      34  27  75 SW12      29.93S WCI  25
MEEKER         CLOUDY    39  31  72 NW10      29.98R
MOUNT WERNER   NOT AVBL
STEAMBOAT SPGS FAIR      35  29  80 CALM      29.89F
WALDEN         NOT AVBL
$$

COZ006>008-011-241000-
...WEST CENTRAL VALLEYS...

CITY           SKY/WX    TMP DP  RH WIND       PRES   REMARKS
GRAND JUNCTION MOCLDY    43  36  76 N14       29.95R
MONTROSE       CLOUDY    43  35  73 NW21G31   29.91R
EAGLE          MOCLDY    37  35  92 CALM      29.91R
RIFLE          CLOUDY    45  35  68 W16       29.92R
DELTA          MOCLDY    48  35  59 W25G32    29.88R
NUCLA          CLOUDY    41  34  75 NW13G20   29.98R
$$

COZ017>023-064>068-241000-
...SOUTHWEST COLORADO...

CITY           SKY/WX    TMP DP  RH WIND       PRES   REMARKS
DURANGO        MOCLDY    36  30  79 W22G29    29.75F
CORTEZ         FAIR      39  34  82 NW10      29.93R
PAGOSA SPRINGS CLOUDY    33  33 100 CALM      29.78R
TELLURIDE      NOT AVBL
WOLF CREEK PAS LGT SNOW  21  21 100 NW7G21    29.84R VSB 1   WCI  13
$$

COZ009-010-012-014-032>034-037-058>063-241000-
...CENTRAL COLORADO...

CITY           SKY/WX    TMP DP  RH WIND       PRES   REMARKS
ASPEN          FLURRIES  33  32  96 NE9       29.87R WCI  25
BUENA VISTA    CLOUDY    40  29  65 NW22G28   29.77R
COPPER MTN     CLOUDY    28  23  80 MISG      29.90R
BERTHOUD PASS  CLOUDY    19   9  63 MISG      29.93R
COTTONWOOD PAS FLURRIES  36  28  75 CALM      29.81R
GUNNISON       FAIR      35  30  82 W10       29.81R WCI  27
KREMMLING      CLOUDY    41  32  70 N9G16     29.92R
LEADVILLE      LGT SNOW  29  25  85 N17G23    29.84R FOG     WCI  17
MONARCH PASS   LGT SNOW  25  23  93 N13       29.92R WCI  13
SALIDA         CLOUDY    39  34  81 N14G24    29.82R
SUNLIGHT       HVY SNOW N/A N/A N/A NW10G17   29.99S VSB<1/4
WILKERSON PASS CLOUDY    25  21  86 MISG      29.83S
$$

COZ069>075-241000-
...SAN LUIS VALLEY/SANGRE DE CRISTO MOUNTAINS...

CITY           SKY/WX    TMP DP  RH WIND       PRES   REMARKS
ALAMOSA        LGT SNOW  34  33  96 NW24G35   29.64R FOG     WCI  21
LA VETA PASS   NOT AVBL
SAGUACHE       LGT SNOW  34  32  93 N14G22    29.71R WCI  24
$$

COZ035-036-038>040-241000-
...NORTHERN COLORADO FRONT RANGE...

CITY           SKY/WX    TMP DP  RH WIND       PRES   REMARKS
DENVER INTL AP LGT SNOW  33  32  96 N28       29.86S VSB 3/4 WCI  20
DMNS CITY PARK   N/A     34  34  98 N18G37    29.90R WCI  23
AURORA         LGT SNOW  32  32 100 N26G35    29.86R FOG     WCI  19
FRONT RANGE AP LGT SNOW  34  34 100 N28       29.86R VSB 1   WCI  20
ERIE MUNI ARPT RAIN      39  35  85 NE26G36   29.91R
BOULDER MUN AP LGT RAIN  39  36  87 NE16G29   29.91R
CENTENNIAL     LGT SNOW  33 N/A N/A N26       29.86R VSB 1   WCI  20
BROOMFIELD     LGT RAIN  36  34  93 N28G40    29.90R
FORT COLLINS   LGT RAIN  40  33  76 NE26G37   29.92R
LONGMONT       DRIZZLE   44  34  69 NE18G30   29.93R
$$

COZ041-046-047-076>085-087-088-241000-
...PIKES PEAK/PALMER DIVIDE AND SOUTHERN FOOTHILLS...

CITY           SKY/WX    TMP DP  RH WIND       PRES   REMARKS
COLO. SPRINGS  LGT SNOW  35  33  92 NW43G58   29.64R FOG     WCI  20
A. F. ACADEMY  NOT AVBL
SCHRIEVER AFB  FLURRIES  36  32  87 N46G66    29.61  SQUALL
ELLICOTT       TSTM     N/A N/A N/A N45G59    29.59R
FALCON         LGT SNOW  33  31  93 N37G54    29.66R WCI  18
FORT CARSON    CLEAR     38  33  84 NW49G70   29.57F
LIMON          LGT RAIN  39  39 100 N37G47    29.66F FOG
MONUMENT HILL  CLOUDY    30  30 100 N29G37    29.80R WCI  15
TRINIDAD       LGT RAIN  38  35  89 NW31G48   29.44S
$$

COZ042>045-048>051-090-091-241000-
...NORTHEAST COLORADO...

CITY           SKY/WX    TMP DP  RH WIND       PRES   REMARKS
GREELEY ARPT   LGT RAIN  40  35  83 N23G31    29.92R
AKRON          HVY RAIN  41  39  93 N29G38    29.75F FOG
BURLINGTON     CLOUDY    49  48  97 NE35G44   29.60R
WRAY           RAIN     N/A N/A N/A NE31G39   29.69F
STERLING       CLOUDY    43  41  93 N20G28    29.80S
HOLYOKE        RAIN      45  43  93 N23G30    29.76F
FORT MORGAN    CLOUDY    39  37  90 N25G37    29.85R
$$

COZ086-089-092>099-241000-
...SOUTHEAST COLORADO...

CITY           SKY/WX    TMP DP  RH WIND       PRES   REMARKS
PUEBLO         TSTM      45  34  65 MISG      29.53R
LA JUNTA       FAIR      48  27  44 NE16      29.40R
LAMAR          FAIR      46  28  49 E9        29.42S
SPRINGFIELD      N/A     42  28  57 S25G31    29.37F
$$




USA.gov is the U.S. government's official web portal to all federal, state and local government web resources and services.